Погода в Янгеле

Россия / Иркутская область     57°04′51″N   103°38′53″E
темп.,
°C
ветер,
м/с
пор.,
м/с
влажн.,
%
обл.,
%
осадки,
мм/ч
давл.,
гПа
погр.,
м
26 февраля, пт
пт2623:00−17ссз2298100 1.0 1015106
02:00−18з1398100 1.6 1016105
05:00−20зюз2398100 0.0 101878
08:00−21зюз1198100 0.0 102320
11:00−17з2489100 0.0 1025424
14:00−16сз3676100 0.0 10251064
17:00−16зсз3578100 0.0 10251095
20:00−20зюз1188100 0.0 102820
27 февраля, сб
сб2723:00−22зюз2292100 0.0 103021
02:00−24юз1294100 0.0 103120
05:00−23юз2898100 0.1 1032278
08:00−24зюз3990100 0.1 1034449
11:00−22з4877100 0.0 10341446
14:00−21зюз5877100 0.1 10341771
17:00−21зюз4783100 0.1 10341606
20:00−23юз2795100 0.2 1035243
28 февраля, вс
вс2823:00−24ююз2498100 0.1 1035108
02:00−23юз3896100 0.1 1035461
05:00−24ююз2597100 0.0 1035148
08:00−23юз2797100 0.1 1036343
11:00−22зюз4884100 0.0 10361208
14:00−20зюз4780100 0.1 10361406
17:00−20з4781100 0.1 10361319
20:00−23зюз2295100 0.1 103762
1 марта, пн
пн123:00−24юз2497100 0.0 1037139
02:00−24ююз1298100 0.1 103632
05:00−25ююз1299100 0.1 103523
08:00−28юз129999 0.1 103419
11:00−22зюз129079 0.0 1032328
14:00−19з127989 0.1 1030947
17:00−20ссв0179100 0.1 1028640
20:00−26всв129295 0.1 102719
2 марта, вт
вт223:00−28всв129555 0.0 102719
02:00−31ссв229838 0.0 102519
05:00−32ссв239933 0.0 102528
08:00−34ссв229934 0.0 102620
11:00−27ссв249336 0.0 1024267
14:00−22ссв248861 0.0 1022513
17:00−21св358699 0.0 1022636
20:00−27св369680 0.0 102499